Weather History for Opa Locka, FL

Change the Weather History Date:

Thursday, November 14, 2013

  Actual Average Record
Temperature  
Mean Temperature 74 °F -  
Max Temperature 78 °F 80 °F 88 °F (1986)
Min Temperature 70 °F 64 °F 43 °F (1968)
Cooling Degree Days 9    
Growing Degree Days 24 (Base 50)    
Moisture  
Dew Point 58 °F    
Average Humidity 59    
Maximum Humidity 66    
Minimum Humidity 52    
Precipitation  
Precipitation 0.00 in - - ()
Sea Level Pressure  
Sea Level Pressure 30.18 in    
Wind  
Wind Speed 16 mph (ENE)    
Max Wind Speed 21 mph    
Max Gust Speed 29 mph    
Visibility 10 miles    
Events      
Averages and records for this station are not official NWS values.
T = Trace of Precipitation, MM = Missing Value Source: NWS Daily Summary

Daily Weather History Graph

Daily Weather History Graph

Search for Another Location

Airport:

Trip Planner

Search our weather history database for the weather conditions in past years. The results will help you decide how hot, cold, wet, or windy it might be!

Date:

Astronomy

Nov. 14, 2013 Rise Set
Actual Time 6:38 AM EST 5:32 PM EST
Civil Twilight 6:14 AM EST 5:56 PM EST
Nautical Twilight 5:46 AM EST 6:24 PM EST
Astronomical Twilight 5:19 AM EST 6:51 PM EST
Moon 3:39 PM EST (11/14) 3:48 AM EST (11/14)
Length of Visible Light 11h 42m
Length of Day
10h 53m
Waxing Gibbous, 91% of the Moon is Illuminated
Nov 14
Waxing Gibbous
Nov 17
Full
Nov 25
Last Quarter
Dec 2
New
Dec 9
First Quarter

Hourly Weather History & Observations

Time (EST) Temp. Dew Point Humidity Pressure Visibility Wind Dir Wind Speed Gust Speed Precip Events Conditions
12:53 AM 71.1 °F 57.0 °F 61% 30.18 in 10.0 mi ENE 16.1 mph 28.8 mph N/A   Overcast
1:53 AM 71.1 °F 55.9 °F 59% 30.17 in 10.0 mi ENE 13.8 mph - N/A   Overcast
2:53 AM 71.1 °F 55.9 °F 59% 30.16 in 10.0 mi NE 18.4 mph 23.0 mph N/A   Overcast
3:53 AM 71.1 °F 59.0 °F 66% 30.16 in 10.0 mi ENE 16.1 mph 21.9 mph N/A   Overcast
4:53 AM 71.1 °F 57.9 °F 63% 30.15 in 10.0 mi ENE 15.0 mph - N/A   Mostly Cloudy
5:53 AM 71.1 °F 55.9 °F 59% 30.17 in 10.0 mi ENE 16.1 mph - N/A   Partly Cloudy
6:53 AM 70.0 °F 55.9 °F 61% 30.19 in 10.0 mi ENE 9.2 mph - N/A   Clear
7:53 AM 73.0 °F 59.0 °F 61% 30.21 in 10.0 mi ENE 15.0 mph 21.9 mph N/A   Scattered Clouds
8:53 AM 73.0 °F 57.9 °F 59% 30.23 in 10.0 mi ENE 19.6 mph 25.3 mph N/A   Partly Cloudy
9:53 AM 73.9 °F 57.9 °F 57% 30.24 in 10.0 mi ENE 18.4 mph - N/A   Mostly Cloudy
10:53 AM 75.9 °F 59.0 °F 56% 30.23 in 10.0 mi East 18.4 mph 26.5 mph N/A   Scattered Clouds
11:53 AM 78.1 °F 60.1 °F 54% 30.21 in 10.0 mi ENE 18.4 mph 26.5 mph N/A   Partly Cloudy
12:53 PM 78.1 °F 59.0 °F 52% 30.18 in 10.0 mi ENE 20.7 mph - N/A   Mostly Cloudy
1:53 PM 77.0 °F 59.0 °F 54% 30.16 in 10.0 mi ENE 19.6 mph 28.8 mph N/A   Scattered Clouds
2:53 PM 75.9 °F 59.0 °F 56% 30.15 in 10.0 mi East 17.3 mph 25.3 mph N/A   Scattered Clouds
3:53 PM 75.9 °F 57.9 °F 54% 30.15 in 10.0 mi ENE 16.1 mph 23.0 mph N/A   Scattered Clouds
4:53 PM 75.0 °F 59.0 °F 57% 30.16 in 10.0 mi ENE 13.8 mph - N/A   Overcast
5:53 PM 73.9 °F 57.9 °F 57% 30.17 in 10.0 mi ENE 17.3 mph - N/A   Scattered Clouds
6:53 PM 73.9 °F 57.9 °F 57% 30.17 in 10.0 mi ENE 16.1 mph 20.7 mph N/A   Mostly Cloudy
7:53 PM 73.9 °F 57.9 °F 57% 30.17 in 10.0 mi ENE 12.7 mph 23.0 mph N/A   Mostly Cloudy
8:53 PM 73.0 °F 59.0 °F 61% 30.17 in 10.0 mi ENE 13.8 mph - N/A   Mostly Cloudy
9:53 PM 73.0 °F 60.1 °F 64% 30.17 in 10.0 mi ENE 11.5 mph - N/A   Mostly Cloudy
10:53 PM 73.9 °F 60.1 °F 62% 30.16 in 10.0 mi East 12.7 mph - N/A   Mostly Cloudy
11:53 PM 75.0 °F 61.0 °F 62% 30.14 in 10.0 mi East 11.5 mph - N/A   Mostly Cloudy